(21547) Kottapalli = 1998 QK38 = 1991 HK4

Discovered at Socorro on 1998-08-17 by LINEAR.
(21547) Kottapalli = 1998 QK38

Anjaney Pramod Kottapalli (b. 1989) was awarded second place in the 2006 Intel International Science and Engineering Fair for his engineering project. He attends the Lynbrook High School, San Jose, California, U.S.A. [Ref: Minor Planet Circ. 57275]

Orbit

Orbit type: Main Belt

Note: WebGL enabled browser required.

epoch2024-03-31.0
epoch JD2460400.5
perihelion date2020-07-28.16664
perihelion JD2459058.66664
argument of perihelion (°)325.23773
ascending node (°)323.00046
inclination (°)0.32522
eccentricity0.1384223
perihelion distance (AU)2.7267123
Tisserand w.r.t. Jupiter3.2
ΔV w.r.t. Earth (km/sec)10.3
semimajor axis (AU)3.1647896
mean anomaly (°)234.90116
mean daily motion (°/day)0.17505990
aphelion distance (AU)3.603
period (years)5.63
P-vector [x]0.31297361
P-vector [y]-0.87009703
P-vector [z]-0.38076065
Q-vector [x]0.94975568
Q-vector [y]0.28527805
Q-vector [z]0.12876560
absolute magnitude13.58
phase slope0.15
uncertainty0
referenceMPEC 2024-F02
observations used2175
oppositions23
arc length (days)12019
first opposition used1991
last opposition used2024
residual rms (arc-secs)0.63
perturbers coarse indicatorM-v
perturbers precise indicator003Ek
first observation date used1991-04-19.0
last observation date used2024-03-15.0
computer nameMPCLINUX
JD of orbit computation2456877.702888
perihelion JD uncertainty (days)7.9738E-05
argument of perihelion uncertainty (°)6.3401E-04
ascending node uncertainty (°)6.3386E-04
inclination uncertainty (°)3.2269E-06
eccentricity uncertainty 2.9076E-08
perihelion distance uncertainty (AU)9.8066E-08
Minimum Orbit Intersection Distances (in AU)
for orbit epoch: 2460400.5, reference: E2024-FB1
Mercury2.27311
Venus1.9993
Earth1.71015
Mars1.28537
Jupiter1.55182
Saturn5.45317
Uranus14.9832
Neptune26.408

Observations

2207 total observations over interval: 1988 12 14.23958 – 2024 03 15.377220
These data are available for download (format description).

Date (UT) J2000 RA J2000 Dec Magn Location Ref
1988 12 14.23958 05 18 57.75 +23 31 30.8   675 – Palomar Mountain MPS 4826
1988 12 14.29514 05 18 54.82 +23 31 27.3   675 – Palomar Mountain MPS 4826
1991 04 19.19028 13 40 10.99 -10 52 14.6 18.7   809 – European Southern Observatory, La Silla MPC 20471
1991 04 19.20347 13 40 10.40 -10 52 11.2   809 – European Southern Observatory, La Silla MPC 20471
1991 04 19.21667 13 40 09.79 -10 52 08.1   809 – European Southern Observatory, La Silla MPC 20471
1998 08 01.32259 23 10 51.98 -05 11 36.3 17.6 R 699 – Lowell Observatory-LONEOS MPS 50961
1998 08 01.33749 23 10 51.63 -05 11 37.9   699 – Lowell Observatory-LONEOS MPS 50961
1998 08 01.35237 23 10 51.32 -05 11 39.6   699 – Lowell Observatory-LONEOS MPS 50961
1998 08 17.35897 23 02 52.44 -05 59 31.9 18.4   704 – Lincoln Laboratory ETS, New Mexico MPS 2031
1998 08 17.38005 23 02 51.53 -05 59 35.4   704 – Lincoln Laboratory ETS, New Mexico MPS 2031
1998 08 17.40122 23 02 50.78 -05 59 40.8   704 – Lincoln Laboratory ETS, New Mexico MPS 2031
1998 08 17.42213 23 02 49.95 -05 59 44.8 18.8   704 – Lincoln Laboratory ETS, New Mexico MPS 2031
1998 08 17.44308 23 02 49.17 -05 59 51.1 19.3   704 – Lincoln Laboratory ETS, New Mexico MPS 2031
1998 08 23.39825 22 58 51.39 -06 23 40.5 18.8   704 – Lincoln Laboratory ETS, New Mexico MPS 2031
1998 08 23.41006 22 58 50.95 -06 23 44.2 18.8   704 – Lincoln Laboratory ETS, New Mexico MPS 2031
1998 08 23.42281 22 58 50.35 -06 23 48.9 18.8   704 – Lincoln Laboratory ETS, New Mexico MPS 2031
1998 08 23.43589 22 58 49.75 -06 23 49.8 19.0   704 – Lincoln Laboratory ETS, New Mexico MPS 2031
1998 08 23.44884 22 58 49.15 -06 23 53.5 19.0   704 – Lincoln Laboratory ETS, New Mexico MPS 2031
1998 09 14.15122 22 43 02.44 -07 57 48.9 18.7   704 – Lincoln Laboratory ETS, New Mexico MPS 2239
1998 09 14.17320 22 43 01.51 -07 57 55.0 18.7   704 – Lincoln Laboratory ETS, New Mexico MPS 2239
1998 09 14.19513 22 43 00.65 -07 58 01.4 18.7   704 – Lincoln Laboratory ETS, New Mexico MPS 2239
1998 09 14.21016 22 43 00.02 -07 58 03.0 17.8 V 691 – Steward Observatory, Kitt Peak-Spacewatch MPS 2239
1998 09 14.21721 22 42 59.62 -07 58 05.8 18.1   704 – Lincoln Laboratory ETS, New Mexico MPS 2239
1998 09 14.23122 22 42 59.11 -07 58 08.3 17.9 V 691 – Steward Observatory, Kitt Peak-Spacewatch MPS 2239
1998 09 14.23926 22 42 58.73 -07 58 11.7 18.1   704 – Lincoln Laboratory ETS, New Mexico MPS 2239
1998 09 14.25263 22 42 58.19 -07 58 13.5 17.9 V 691 – Steward Observatory, Kitt Peak-Spacewatch MPS 2239
1998 09 18.25363 22 40 17.07 -08 13 57.9 17.8   704 – Lincoln Laboratory ETS, New Mexico MPS 2239
1998 09 18.26649 22 40 16.57 -08 14 01.1 17.8   704 – Lincoln Laboratory ETS, New Mexico MPS 2239
1998 09 18.27937 22 40 16.02 -08 14 03.8 18.1   704 – Lincoln Laboratory ETS, New Mexico MPS 2239
1998 09 18.28491 22 40 15.81 -08 14 05.6 17.7 R 699 – Lowell Observatory-LONEOS MPS 2239
1998 09 18.29224 22 40 15.49 -08 14 06.6 18.1   704 – Lincoln Laboratory ETS, New Mexico MPS 2239
1998 09 18.30353 22 40 15.09 -08 14 09.7   699 – Lowell Observatory-LONEOS MPS 2239
1998 09 18.30499 22 40 14.90 -08 14 09.4 18.1   704 – Lincoln Laboratory ETS, New Mexico MPS 2239
1998 09 18.32215 22 40 14.32 -08 14 13.3   699 – Lowell Observatory-LONEOS MPS 2239
1998 09 20.27444 22 38 59.96 -08 21 28.0 18.0 V 691 – Steward Observatory, Kitt Peak-Spacewatch MPS 2239
1998 09 20.29570 22 38 59.12 -08 21 32.5 18.1 V 691 – Steward Observatory, Kitt Peak-Spacewatch MPS 2239
1998 09 20.32886 22 38 57.82 -08 21 40.1 18.1 V 691 – Steward Observatory, Kitt Peak-Spacewatch MPS 2239
1998 09 26.22512 22 35 33.84 -08 41 26.5 17.9 V 691 – Steward Observatory, Kitt Peak-Spacewatch MPS 2239
1998 09 26.24763 22 35 33.10 -08 41 30.6 17.9 V 691 – Steward Observatory, Kitt Peak-Spacewatch MPS 2239
1998 09 26.26922 22 35 32.36 -08 41 34.6 17.9 V 691 – Steward Observatory, Kitt Peak-Spacewatch MPS 2239
1998 09 29.15739 22 34 05.44 -08 49 58.0 17.8 V 691 – Steward Observatory, Kitt Peak-Spacewatch MPS 2239
1998 09 29.17833 22 34 04.77 -08 50 01.5 17.9 V 691 – Steward Observatory, Kitt Peak-Spacewatch MPS 2239
1998 09 29.19940 22 34 04.13 -08 50 04.8 17.9 V 691 – Steward Observatory, Kitt Peak-Spacewatch MPS 2239
1999 10 22.31321 04 17 45.94 +21 48 25.9 19.6   704 – Lincoln Laboratory ETS, New Mexico MPS 6735
1999 10 22.32777 04 17 45.53 +21 48 25.1 19.4   704 – Lincoln Laboratory ETS, New Mexico MPS 6735
1999 10 22.34048 04 17 45.09 +21 48 23.3 19.1   704 – Lincoln Laboratory ETS, New Mexico MPS 6735
1999 10 22.35321 04 17 44.68 +21 48 23.2 19.2   704 – Lincoln Laboratory ETS, New Mexico MPS 6735
1999 11 03.32324 04 10 30.35 +21 31 04.1 18.8   704 – Lincoln Laboratory ETS, New Mexico MPS 7316
1999 11 03.33936 04 10 29.62 +21 31 03.0 18.4   704 – Lincoln Laboratory ETS, New Mexico MPS 7316
1999 11 03.35546 04 10 28.89 +21 31 01.1 18.7   704 – Lincoln Laboratory ETS, New Mexico MPS 7316
1999 11 03.37152 04 10 28.24 +21 30 59.1 18.4   704 – Lincoln Laboratory ETS, New Mexico MPS 7316
1999 11 03.38760 04 10 27.52 +21 30 58.3 18.4   704 – Lincoln Laboratory ETS, New Mexico MPS 7316
1999 11 08.97723 04 06 18.80 +21 20 14.9 18.6   120 – Visnjan MPS 7316
1999 11 09.00544 04 06 17.34 +21 20 12.5   120 – Visnjan MPS 7316
1999 11 09.36097 04 06 00.74 +21 19 28.2 19.2   704 – Lincoln Laboratory ETS, New Mexico MPS 7316
1999 11 09.37533 04 06 00.02 +21 19 26.2 19.4   704 – Lincoln Laboratory ETS, New Mexico MPS 7316
1999 11 09.38970 04 05 59.35 +21 19 24.0 19.5   704 – Lincoln Laboratory ETS, New Mexico MPS 7316
1999 11 09.40460 04 05 58.65 +21 19 21.6 19.2   704 – Lincoln Laboratory ETS, New Mexico MPS 7316
1999 11 09.41895 04 05 57.93 +21 19 19.8 19.4   704 – Lincoln Laboratory ETS, New Mexico MPS 7316
1999 11 09.99231 04 05 31.17 +21 18 08.4 18.2   120 – Visnjan MPS 7316
1999 11 10.00517 04 05 30.64 +21 18 07.1   120 – Visnjan MPS 7316
1999 11 12.29987 04 03 40.95 +21 13 12.4 18.3   704 – Lincoln Laboratory ETS, New Mexico MPS 7316
1999 11 12.31436 04 03 40.25 +21 13 10.4 18.3   704 – Lincoln Laboratory ETS, New Mexico MPS 7316
1999 11 12.32867 04 03 39.52 +21 13 08.4 18.2   704 – Lincoln Laboratory ETS, New Mexico MPS 7316
1999 11 12.34296 04 03 38.83 +21 13 06.8 18.4   704 – Lincoln Laboratory ETS, New Mexico MPS 7316
1999 11 12.35727 04 03 38.11 +21 13 04.9 18.3   704 – Lincoln Laboratory ETS, New Mexico MPS 7316
1999 11 16.22429 04 00 28.15 +21 04 18.1 18.4   704 – Lincoln Laboratory ETS, New Mexico MPS 7316
1999 11 16.23858 04 00 27.48 +21 04 16.1 18.3   704 – Lincoln Laboratory ETS, New Mexico MPS 7316
1999 11 16.25281 04 00 26.70 +21 04 14.7 18.4   704 – Lincoln Laboratory ETS, New Mexico MPS 7316
1999 11 16.26705 04 00 26.01 +21 04 11.9 17.7   704 – Lincoln Laboratory ETS, New Mexico MPS 7316
1999 11 16.28132 04 00 25.24 +21 04 10.5 18.1   704 – Lincoln Laboratory ETS, New Mexico MPS 7316
1999 12 05.23155 03 44 46.54 +20 16 38.1 18.1 R 703 – Catalina Sky Survey MPS 7782
1999 12 05.24387 03 44 45.98 +20 16 36.9 18.4 R 703 – Catalina Sky Survey MPS 7782
1999 12 05.25618 03 44 45.41 +20 16 35.3 17.5 R 703 – Catalina Sky Survey MPS 7782
1999 12 05.26851 03 44 44.80 +20 16 33.3 18.5 R 703 – Catalina Sky Survey MPS 7782
1999 12 07.22223 03 43 15.58 +20 11 38.3 18.7   704 – Lincoln Laboratory ETS, New Mexico MPS 7782
1999 12 07.23681 03 43 14.88 +20 11 36.6 19.0   704 – Lincoln Laboratory ETS, New Mexico MPS 7782
1999 12 07.25134 03 43 14.20 +20 11 34.7 19.1   704 – Lincoln Laboratory ETS, New Mexico MPS 7782
1999 12 07.26592 03 43 13.57 +20 11 31.5 19.1   704 – Lincoln Laboratory ETS, New Mexico MPS 7782
1999 12 07.28047 03 43 12.87 +20 11 29.5 18.8   704 – Lincoln Laboratory ETS, New Mexico MPS 7782
1999 12 14.10361 03 38 24.82 +19 55 12.2 19.2 V 691 – Steward Observatory, Kitt Peak-Spacewatch MPS 8450
1999 12 14.12600 03 38 23.92 +19 55 09.4 19.0 V 691 – Steward Observatory, Kitt Peak-Spacewatch MPS 8450
